Voltar ao catálogo

CZ-6A DEB

AtivoPO
NORAD 60660·DEBRIS·🇨🇳 China

Lançado Aug 6, 2024 de Taiyuan Satellite Launch Center

Loading…

Próximas Passagens (próximas 24 horas)

TLE

AtualizadoSource: Space-Track

Época: Sep 14, 2026, 07:09 UTC

1 60660U 24140BM  26257.29847650  .00003349  00000-0  61739-3 0  9990
2 60660  88.9904 258.8812 0132135 331.8006  27.6092 14.59781871111525

Acompanhe CZ-6A DEB em tempo real com AllMySat

Download on the App Store